Regional Weather Roundup
Issued by NWS

Home | Current Version | Previous Version | Graphics & Text | Print | Product List | Glossary On
Versions: 1 2 3 4 5 6 7 8 9 10 11 12 13 14 15 16 17 18 19 20 21 22 23 24 25 26 27 28 29 30 31 32 33 34 35 36 37 38 39 40 41 42 43 44 45 46 47 48 49 50
000
ASUS43 KBIS 292110
RWRND

NORTH DAKOTA REGIONAL WEATHER ROUNDUP
NATIONAL WEATHER SERVICE BISMARCK ND
400 PM CDT FRI JUL 29 2016

NOTE: "FAIR" INDICATES FEW OR NO CLOUDS BELOW 12,000 FEET WITH NO
SIGNIFICANT WEATHER AND/OR OBSTRUCTIONS TO VISIBILITY.


NDZ001>003-009>011-017-292200-
NORTHWEST NORTH DAKOTA

CITY           SKY/WX    TMP DP  RH WIND       PRES   REMARKS
WILLISTON      MOSUNNY   82  46  28 CALM      30.01F
MINOT          CLOUDY    82  58  43 S9        30.01F
MINOT AFB      MOSUNNY   79  60  51 S7        30.00F
$$

NDZ018>021-031>035-040>046-292200-
SOUTHWEST NORTH DAKOTA

CITY           SKY/WX    TMP DP  RH WIND       PRES   REMARKS
BISMARCK       MOSUNNY   81  58  45 VRB6      30.02F
DICKINSON      MOSUNNY   79  55  43 SE9       30.02F
GARRISON         N/A     77  60  55 S6        30.03F
HETTINGER ARPT SUNNY     80  52  37 VRB3      30.04F
$$

NDZ004>008-012>016-024-026-027-054-292200-
NORTHEAST NORTH DAKOTA

CITY           SKY/WX    TMP DP  RH WIND       PRES   REMARKS
GRAND FORKS    PTSUNNY   80  56  43 VRB3      30.03F
GRND FRKS AFB  MOSUNNY   78  54  43 VRB2      30.04F
DEVILS LAKE    SUNNY     76  57  51 S3        30.05F
$$

NDZ022-023-025-028>030-036>039-047>053-292200-
SOUTHEAST NORTH DAKOTA

CITY           SKY/WX    TMP DP  RH WIND       PRES   REMARKS
FARGO          MOSUNNY   79  59  50 W7        30.03F
JAMESTOWN      CLOUDY    69  63  81 SW8       30.05S
$$





USA.gov is the U.S. government's official web portal to all federal, state and local government web resources and services.